Location: Eckley
(40.9930°N, 75.8630°W)
Time: 14:37:27
(UTC-05:00)

Daily predictions for brighter satellites

Satellite Brightness Start Highest point End
(mag) Time Altitude Azimuth Time Altitude Azimuth Time Altitude Azimuth
Cosmos 2227 Rocket 2.4 16:57:15 10° NNW 17:02:46 51° ENE 17:08:15 10° SE
Cosmos 1125 Rocket 4.1 16:59:37 10° S 17:04:31 39° ESE 17:09:24 10° NE
Cosmos 2219 4.2 17:05:31 10° NNW 17:10:59 53° WSW 17:16:24 10° S
Cosmos 1048 Rocket 4.4 17:07:37 10° N 17:12:44 41° ENE 17:17:47 10° SE
SJ-12 4.2 17:11:30 10° S 17:15:35 73° WSW 17:19:42 10° NNW
Cosmos 372 Rocket 4.3 17:11:26 10° S 17:16:25 48° ESE 17:21:23 10° NNE
Cosmos 389 Rocket 2.8 17:13:00 10° NNW 17:16:28 68° W 17:19:53 10° S
Meteor 2-9 Rocket 4.3 17:11:19 10° N 17:16:38 48° ENE 17:21:47 10° SSE
ALOS 3.6 17:13:56 10° ESE 17:16:59 18° ENE 17:20:04 10° NNE
Cosmos 1271 Rocket 2.7 17:14:13 10° N 17:18:03 87° E 17:21:55 10° S
Cosmos 1980 Rocket 3.6 17:15:33 10° SE 17:19:23 19° E 17:23:15 10° ENE
NOSS 5 (C) 4.5 17:18:06 10° SSW 17:22:05 73° ESE 17:25:19 10° NE
NOSS 3-2 (A) 4.1 17:15:04 10° NNW 17:22:25 55° NE 17:30:24 10° SE
SJ-7 4.3 17:20:52 10° SSE 17:24:52 81° ENE 17:28:51 10° N
Cosmos 2297 Rocket 2.2 17:23:34 10° NNW 17:29:14 70° ENE 17:34:52 10° SSE
Cosmos 1656 3.7 17:23:47 10° S 17:29:16 61° ESE 17:34:42 10° NNE
NOSS 3-2 (C) 4.2 17:23:26 10° NNW 17:30:40 49° NE 17:38:32 10° ESE
Cosmos 1666 3.1 17:29:51 10° NNW 17:33:34 65° W 17:37:15 10° S
Cosmos 2266 Rocket 4.0 17:28:26 10° N 17:34:28 60° E 17:40:34 10° SSE
ATLAS 3B R/B 2.7 17:28:08 10° NW 17:34:50 84° WSW 17:41:21 10° SSE
USA 161 4.3 17:34:07 10° NNW 17:36:20 19° WNW 17:38:37 10° WSW
ATLAS 2AS CENTAUR R/B 3.7 17:29:05 10° SW 17:36:42 54° NW 17:44:41 10° NNE
Cosmos 1484 Rocket 3.1 17:34:11 10° S 17:38:11 74° WSW 17:42:13 10° NNW
Cosmos 1455 Rocket 3.5 17:35:27 10° NNW 17:39:51 67° W 17:44:10 10° S
Atlas Centaur 2 4.2 17:36:57 10° WSW 17:41:06 20° SSW 17:44:38 10° SSE
Cosmos 158 Rocket 4.0 17:39:08 10° NNW 17:44:12 79° WSW 17:49:07 10° SSE
Cosmos 1544 Rocket 4.4 17:40:00 10° NNW 17:44:14 54° W 17:48:26 10° S
DELTA 2 R/B (1) 3.7 17:40:41 10° W 17:46:15 76° S 17:51:00 14° ESE
USA 116 3.0 17:44:04 10° NNE 17:47:13 70° ESE 17:50:17 10° S
USA 215 3.3 17:40:53 10° SE 17:47:25 86° SW 17:54:00 10° NW
YAOGAN 1 2.5 17:45:48 10° SSE 17:50:05 66° ENE 17:54:23 10° N
IRS-1A Rocket 4.2 17:45:13 10° SSE 17:50:47 77° ENE 17:56:19 10° NNW
PSLV R/B 3.0 17:48:12 10° W 17:51:23 87° N 17:52:53 28° E
MINOTAUR IV R/B 4.5 17:47:18 10° NNW 17:51:49 83° ENE 17:56:17 10° SSE
Abrixas rocket 3.8 17:50:52 10° NW 17:53:27 21° N 17:54:23 19° NNE
BREEZE-M DEB (TANK) 3.9 17:51:57 10° NW 17:54:47 46° NNE 17:59:36 15° E
Meteor 2-4 Rocket 3.8 17:51:07 10° SSW 17:56:32 74° W 18:01:55 10° N
NOSS 3-4 (A) 3.5 17:51:53 10° SSW 17:58:01 67° ESE 18:02:56 17° NE
NOSS 3-4 (C) 3.5 17:52:00 10° SSW 17:58:07 66° ESE 18:03:00 18° NE
SL-16 R/B 4.0 17:59:26 10° SE 18:00:36 12° ESE 18:00:36 12° ESE
METEOR-M 4.0 17:57:14 10° SSE 18:02:34 80° ENE 18:07:56 10° N
ISS -0.8 18:01:05 10° W 18:03:24 18° SW 18:05:42 10° S
Cosmos 2263 Rocket 4.1 18:00:53 10° NNE 18:01:51 12° NNE 18:01:51 12° NNE
FENGYUN 3A 3.8 17:58:31 10° SE 18:03:40 50° ENE 18:08:52 10° N
STPSAT 2 (USA 217) 4.5 17:59:29 10° NNW 18:04:02 78° ENE 18:08:34 10° SSE
Cosmos 2369 4.2 18:00:21 10° SW 18:05:56 59° WNW 18:11:35 10° NNE
Cosmos 2278 4.2 18:00:29 10° SW 18:06:06 62° WNW 18:11:46 10° NNE
Cosmos 2322 Rocket 4.0 18:03:36 10° SE 18:04:44 13° ESE 18:04:44 13° ESE
COSMO-SKYMED 1 2.5 18:02:48 10° NNE 18:07:07 72° ESE 18:11:26 10° S
RESURS DK-1 3.3 18:04:07 10° SSE 18:07:39 28° ESE 18:07:48 28° ESE
SJ 16-02 2.3 18:04:31 10° SW 18:08:45 48° WNW 18:13:03 10° N
Cosmos 2360 4.5 18:05:31 10° S 18:10:57 47° ESE 18:13:53 26° NE
CENTAUR R/B 3.4 18:06:45 10° NNW 18:14:09 43° NE 18:19:24 21° ESE
Meteor 2-11 Rocket 4.3 18:14:54 10° S 18:21:03 79° E 18:27:12 10° N
Cosmos 1697 Rocket 2.8 18:15:41 10° SSW 18:21:20 76° WNW 18:25:53 16° NNE
NOSS 2-2 (E) 3.8 18:17:46 10° S 18:21:27 41° ESE 18:21:38 41° ESE
Cosmos 1515 3.8 18:18:47 10° SSW 18:22:33 71° W 18:25:17 18° N
EO 1 Del DPAF 3.1 18:22:11 28° NNE 18:24:08 89° WNW 18:27:57 10° SSW
CZ-4 R/B 3.3 18:22:40 10° SSW 18:26:05 30° W 18:29:36 10° NW
NOSS 2-2 (C) 3.9 18:24:43 10° S 18:28:01 40° SE 18:28:01 40° SE
SPOT 3 Rocket 3.4 18:23:33 10° SSE 18:28:43 86° ENE 18:33:55 10° NNW
BREEZE-M DEB (TANK) 4.4 18:05:03 10° WNW 18:28:47 87° NNE 18:31:08 33° ESE
Cosmos 1553 Rocket 4.2 18:24:09 10° SSE 18:30:17 51° E 18:34:27 21° NNE
Cosmos 1025 Rocket 3.1 18:26:47 10° SSW 18:31:04 73° W 18:34:10 18° N
Cosmos 1417 Rocket 4.4 18:27:34 10° S 18:33:36 62° E 18:38:48 15° NNE
ERS-2 2.7 18:33:13 10° S 18:36:50 58° WSW 18:40:28 10° NNW
Okean 1-7 Rocket 3.5 18:32:53 10° S 18:37:16 84° W 18:39:23 31° N
Cosmos 494 Rocket 3.9 18:33:35 10° NNW 18:38:54 85° ENE 18:44:08 10° SSE
Thor Agena Rocket 4.2 18:40:38 38° SE 18:40:38 38° SE 18:44:38 10° S
Cosmos 2084 3.8 18:36:56 10° SW 18:41:02 55° NW 18:41:44 48° NNW
Cosmos 2251 Rocket 3.4 18:36:16 10° NNW 18:41:30 60° ENE 18:42:21 52° ESE
Gblst 52 Del rocket 4.2 18:35:49 10° NW 18:41:32 88° NE 18:44:12 36° SE
Cosmos 1745 Rocket 4.1 18:37:50 10° N 18:43:51 50° ENE 18:49:55 10° SSE
Okean 2 4.5 18:44:24 10° SSW 18:48:18 43° WNW 18:50:50 19° NNW
ALOS 3.1 18:49:31 10° S 18:54:02 49° W 18:58:34 10° NNW
FengYun 1-2 T 4.1 18:48:28 10° SSE 18:54:03 74° ENE 18:59:44 10° N
DNEPR-1 R/B 4.2 18:50:43 10° NW 18:55:58 84° WSW 18:59:46 25° SSE
Cosmos 1980 Rocket 2.6 18:57:15 10° SW 19:02:50 60° WNW 19:05:03 36° N
Cosmos 1066 Rocket 4.2 19:00:27 10° SSW 19:05:58 74° W 19:07:39 45° N
SL-8 R/B 4.4 19:01:37 10° SW 19:05:16 47° SSW 19:05:16 47° SSW
Cosmos 2344 3.6 19:24:45 10° SSW 19:31:20 61° SSE 19:31:20 61° SSE
Lacrosse 5 rocket 4.1 19:28:50 10° SSW 19:29:24 14° SSW 19:29:24 14° SSW
SL-16 R/B 3.6 19:39:49 10° SSW 19:42:32 30° SSW 19:42:32 30° SSW
Cosmos 2263 Rocket 4.4 19:42:49 10° NNW 19:43:35 14° NNW 19:43:35 14° NNW
Cosmos 2322 Rocket 3.8 19:44:15 10° SSW 19:46:37 26° SSW 19:46:37 26° SSW
CENTAUR R/B 3.6 19:57:24 10° NW 20:05:10 54° WSW 20:06:43 48° SSW
